Regional Weather Roundup
Issued by NWS

Home | Current Version | Previous Version | Graphics & Text | Print | Product List | Glossary On
Versions: 1 2 3 4 5 6 7 8 9 10 11 12 13 14 15 16 17 18 19 20 21 22 23 24 25 26 27 28 29 30 31 32 33 34 35 36 37 38 39 40 41 42 43 44 45 46 47 48 49 50
084
ASUS43 KDMX 221401
RWRIA

WEATHER ROUNDUP FOR IOWA
NATIONAL WEATHER SERVICE DES MOINES IA
800 AM CST SUN JAN 22 2017

NOTE: "FAIR" INDICATES FEW OR NO CLOUDS BELOW 12,000 FEET WITH NO
SIGNIFICANT WEATHER AND/OR OBSTRUCTIONS TO VISIBILITY.

* - THESE STATIONS ARE NOT NWS STATIONS...THUS NOT UNDER NWS
QUALITY CONTROL.  THEY ALSO DO NOT REPORT WEATHER SUCH
AS PRECIPITATION OR FOG.

IAZ001>003-012>014-020>022-031>034-043>046-221500-
   NORTHWEST IOWA

CITY           SKY/WX    TMP DP  RH WIND       PRES   REMARKS
CARROLL *      CLOUDY    34  34 100 NW8       29.69R FOG     WCI  27
CHEROKEE *     CLOUDY    33  32  98 NW7       29.71R WCI  27
DENISON *      CLOUDY    32  30  93 NW7       29.69R WCI  26
LE MARS *      CLOUDY    34  30  86 NW5       29.73S WCI  30
ORANGE CITY *  MIX PCPN  32  32 100 NW10      29.71R WCI  24
SHELDON *      LGT RAIN  32  32 100 NW10      29.70R WCI  24
SIOUX CITY     CLOUDY    34  30  85 NW15      29.73R WCI  24
SPENCER          N/A    N/A N/A N/A MISG      29.69R
STORM LAKE *   CLOUDY    32  32 100 NW12      29.69R FOG     WCI  23
$$

IAZ055>058-069>071-079>083-090>094-221500-
   SOUTHWEST IOWA

CITY           SKY/WX    TMP DP  RH WIND       PRES   REMARKS
ATLANTIC *     CLOUDY    32  32 100 N9        29.70R FOG     WCI  24
AUDUBON *      CLOUDY    32  30  93 N6        29.69R WCI  26
CLARINDA *     CLOUDY    32  32 100 N12       29.72R WCI  23
COUNCIL BLFS * CLOUDY    32  32 100 N16       29.71R WCI  21
CRESTON *      CLOUDY    30  30 100 N10       29.70R FOG     WCI  21
HARLAN  *      CLOUDY    32  32 100 N13       29.73R WCI  22
LAMONI         FOG       30  29  96 N16       29.65R VSB 1/4 WCI  19
RED OAK *      CLOUDY    32  32 100 N16G23    29.71R WCI  21
SHENANDOAH *   CLOUDY    32  30  93 N9        29.73R FOG     WCI  24
$$

IAZ047>049-059>061-072>074-084-221500-
   CENTRAL IOWA

CITY           SKY/WX    TMP DP  RH WIND       PRES   REMARKS
AMES           CLOUDY    33  33 100 NW10      29.66R WCI  25
ANKENY *       CLOUDY    34  32  93 NW6       29.68R WCI  29
BOONE *        FOG       32  32 100 NW8       29.66R VSB 1/4 WCI  25
CHARITON *     CLOUDY    30  30 100 N9        29.66R FOG     WCI  22
DES MOINES     CLOUDY    34  31  88 NW5       29.67R WCI  30
GRINNELL*      CLOUDY    32  32 100 NW5       29.65R WCI  27
KNOXVILLE *    CLOUDY    32  32 100 N13G18    29.65R WCI  22
MARSHALLTOWN   CLOUDY    32  31  96 NW7       29.64S WCI  26
NEWTON *       CLOUDY    32  32 100 NW5       29.65R WCI  27
PELLA *        CLOUDY    32  31  98 NW10      29.67R FOG     WCI  24
PERRY *        CLOUDY    33  32  98 NW7       29.68R FOG     WCI  27
$$

IAZ004>006-015-016-023>025-035-036-221500-
   NORTH CENTRAL IOWA

CITY           SKY/WX    TMP DP  RH WIND       PRES   REMARKS
ALGONA *       FOG       34  34 100 NW7       29.67R VSB<1/4 WCI  28
CLARION *      FOG       34  34 100 NW7       29.66R VSB<1/4 WCI  28
ESTHERVILLE    FOG       32  32 100 NW10      29.68R VSB 1/4 WCI  24
FORT DODGE *   CLOUDY    34  30  86 NW5       29.68R WCI  30
MASON CITY     FOG       33  32  96 NW7       29.66R VSB 3/4 WCI  27
FOREST CITY *  FOG       34  34 100 NW7       29.65R VSB 3/4 WCI  28
WEBSTER CITY * CLOUDY    34 N/A N/A NW9       29.65R FOG     WCI  26
IOWA FALLS *   CLOUDY    33  33  98 NW7       29.65R FOG     WCI  27
$$

IAZ007>011-017>019-026>030-037>042-050>054-066-221500-
   NORTHEAST IOWA

CITY           SKY/WX    TMP DP  RH WIND       PRES   REMARKS
CEDAR RAPIDS   FOG       33  33 100 NW9       29.62R VSB 1/2 WCI  25
CHARLES CITY * CLOUDY    32  32 100 NW5       29.65R FOG     WCI  27
CLINTON *      FOG       28  28 100 NE3       29.64R VSB 1/4
DECORAH *      CLOUDY    32  32 100 CALM      29.62R FOG
DUBUQUE        CLOUDY    31  31 100 CALM      29.62R
MONTICELLO *   CLOUDY    32  32 100 N5        29.63R FOG     WCI  27
OELWEIN *      FOG       32  32 100 NW5       29.64R VSB 3/4 WCI  27
WATERLOO       CLOUDY    32  30  92 NW5       29.64R WCI  27
$$

IAZ064-065-067-068-078-221500-
   EAST CENTRAL IOWA

CITY           SKY/WX    TMP DP  RH WIND       PRES   REMARKS
DAVENPORT      FOG       30  30 100 CALM      29.64R VSB<1/4
IOWA CITY      FOG       33  32  96 CALM      29.65R VSB 1/2
MUSCATINE *    MOCLDY    32  32 100 CALM      29.64R FOG
QUAD CITIES    MOCLDY    32  30  92 CALM      29.63R FOG
$$

IAZ062-063-075>077-085>089-095>099-221500-
   SOUTHEAST IOWA

CITY           SKY/WX    TMP DP  RH WIND       PRES   REMARKS
BURLINGTON     CLOUDY    36  36 100 N6        29.63R FOG     WCI  31
FAIRFIELD *    FOG       32  32 100 W3        29.64R VSB<1/4
FORT MADISON * FOG       36  36 100 NW3       29.64R VSB 3/4
KEOKUK *       MIX PCPN  39 N/A N/A NE3       29.62R
OSKALOOSA *    FOG       32  32 100 NW9       29.65R VSB 3/4 WCI  24
CENTERVILLE *  CLOUDY    32  32 100 NW10      29.66R FOG     WCI  24
OTTUMWA        FOG       33  31  92 NW10      29.64R VSB 1/4 WCI  25
WASHINGTON *   FOG       32  32 100 NW5       29.65R VSB<1/4 WCI  27
$$

ABBREVIATIONS USED IN REMARKS
   TC - TEMPERATURES IN CELSIUS
  WCI - WIND CHILL INDEX
   HX - HEAT INDEX
  VSB - VISIBILITY
$$





USA.gov is the U.S. government's official web portal to all federal, state and local government web resources and services.